GW2598 Weather Reports


time (UTC)temp
C
wind
direction
speed
KPH
gust
KPH
rain 1hr
cm
rain 24hr
cm
rain mn
cm
humidity
%
barometer
mb
20260504171554 20 205 12.9 29.0 0.00 0.00 0.00 33 1010.5
20260504140110 16 255 4.8 27.4 0.00 0.00 0.00 43 1012.2
20260504110118 10 248 6.4 17.7 0.00 0.00 0.00 51 1013.0
20260504100105 10 219 3.2 6.4 0.00 0.00 0.00 51 1012.8
20260504090119 10 223 3.2 8.0 0.00 0.00 0.00 48 1012.5
20260504081556 10 0 1.6 11.3 0.00 0.00 0.00 49 1012.2
20260504044602 8 213 1.6 4.8 0.00 0.00 0.00 60 1011.7
20260504043057 8 235 0.0 4.8 0.00 0.00 0.00 55 1011.5
20260504041553 8 338 1.6 6.4 0.00 0.00 0.00 58 1011.4
20260504040052 8 0 0.0 4.8 0.00 0.00 0.00 57 1011.4
20260504034559 7 257 0.0 4.8 0.00 0.00 0.00 61 1011.3
20260504033103 6 0 0.0 0.0 0.00 0.00 0.00 64 1011.4
20260504031554 7 0 0.0 0.0 0.00 0.00 0.00 65 1011.3
20260504030052 7 0 0.0 0.0 0.00 0.00 0.00 64 1011.3
20260504024557 7 0 0.0 0.0 0.00 0.00 0.00 62 1011.4
20260504023055 7 0 0.0 0.0 0.00 0.00 0.00 59 1011.5
20260504021557 8 0 0.0 0.0 0.00 0.00 0.00 57 1011.5
20260504020057 8 0 0.0 0.0 0.00 0.00 0.00 55 1011.5
20260504014552 9 0 0.0 0.0 0.00 0.00 0.00 51 1011.4
20260504013057 10 0 0.0 0.0 0.00 0.00 0.00 47 1011.3
20260504011552 11 0 0.0 3.2 0.00 0.00 0.00 45 1011.1
20260504010101 11 0 0.0 6.4 0.00 0.00 0.00 40 1010.9
20260504004553 12 0 0.0 3.2 0.00 0.00 0.00 41 1010.9
20260504003054 12 0 0.0 3.2 0.00 0.00 0.00 36 1010.6
20260504001610 13 0 0.0 6.4 0.00 0.00 0.00 34 1010.3
20260504000055 13 290 0.0 12.9 0.00 0.00 0.00 33 1010.2
20260503234550 13 302 4.8 14.5 0.00 0.00 0.00 31 1009.8
20260503233057 14 266 4.8 17.7 0.00 0.00 0.00 30 1009.7
20260503231555 14 355 4.8 20.9 0.00 0.00 0.00 30 1009.6
20260503230054 15 296 6.4 19.3 0.00 0.00 0.00 28 1009.5
20260503224554 15 299 4.8 20.9 0.00 0.00 0.00 28 1009.3
20260503223053 15 297 11.3 32.2 0.00 0.00 0.00 27 1009.3
20260503221554 15 289 12.9 29.0 0.00 0.00 0.00 27 1009.4
20260503220110 15 340 14.5 30.6 0.00 0.00 0.00 27 1009.4
20260503214553 14 292 14.5 27.4 0.00 0.00 0.00 27 1009.4
20260503213057 14 341 16.1 35.4 0.00 0.00 0.00 27 1009.3
20260503211606 14 317 14.5 29.0 0.00 0.00 0.00 27 1009.1
20260503210058 14 300 16.1 35.4 0.00 0.00 0.00 28 1009.2
20260503204556 14 292 12.9 32.2 0.00 0.00 0.00 28 1009.2
20260503203053 13 352 16.1 35.4 0.00 0.00 0.00 29 1009.3
20260503201556 13 319 16.1 30.6 0.00 0.00 0.00 32 1009.2
20260503200053 13 331 19.3 38.6 0.00 0.00 0.00 30 1009.4
20260503194555 13 340 19.3 40.2 0.00 0.00 0.00 32 1009.3
20260503193102 13 313 20.9 41.8 0.00 0.00 0.00 31 1009.7
20260503191557 12 312 11.3 37.0 0.00 0.00 0.00 34 1009.6
20260503190052 12 265 20.9 40.2 0.00 0.00 0.00 33 1009.8
20260503184552 12 287 14.5 35.4 0.00 0.00 0.00 33 1010.0
20260503183104 12 5 14.5 25.7 0.00 0.00 0.00 36 1010.0
20260503181620 12 14 16.1 32.2 0.00 0.00 0.00 37 1010.0
20260503180124 11 326 19.3 45.1 0.00 0.00 0.00 37 1010.3
20260503174557 12 277 11.3 35.4 0.00 0.00 0.00 37 1010.1
20260503173100 11 281 17.7 46.7 0.00 0.00 0.00 37 1010.2